Location: Plymouth
(43.7490°N, 87.9770°W)
Time: 05:47:03
(UTC-06:00)

Daily predictions for brighter satellites

Satellite Brightness Start Highest point End
(mag) Time Altitude Azimuth Time Altitude Azimuth Time Altitude Azimuth
ADEOS II 4.4 02:44:22 10° NE 02:47:40 19° E 02:47:40 19° E
Lacrosse 5 3.7 03:16:33 28° ENE 03:16:33 28° ENE 03:19:02 10° NE
ATLAS CENTAUR R/B 4.0 03:21:01 51° SSE 03:21:01 51° SSE 03:31:40 10° SE
CZ-4C R/B 3.5 03:27:47 31° ESE 03:28:03 31° ESE 03:33:06 10° NE
ADEOS Rocket 4.1 03:27:24 10° N 03:31:23 35° NNW 03:31:23 35° NNW
Cosmos 2369 Rocket 3.3 03:41:22 34° N 03:41:22 34° N 03:44:42 10° NNE
GEOS 3 Rocket 4.1 03:34:47 10° ESE 03:39:30 54° ENE 03:39:30 54° ENE
USA 234 4.2 03:36:58 10° ENE 03:43:02 40° SE 03:45:09 32° SSE
Okean O Rocket 3.6 03:40:17 10° NNE 03:41:51 22° NNE 03:41:51 22° NNE
Meteor 2-10 Rocket 4.2 03:54:32 37° SE 03:56:02 50° E 04:00:57 10° NNE
Okean 1-7 4.4 04:00:19 24° SE 04:02:10 36° E 04:06:05 10° NNE
ERS-2 3.9 04:01:55 10° NNE 04:03:55 29° NNE 04:03:55 29° NNE
IRAS Rocket 4.1 04:02:24 10° NNE 04:07:43 73° NW 04:07:43 73° NW
ATLAS 5 CENTAUR R/B 2.7 04:09:45 40° NNW 04:09:45 40° NNW 04:13:49 10° NNE
Cosmos 1452 Rocket 3.6 04:07:57 58° S 04:08:54 75° ESE 04:14:12 10° NNE
Thor Agena Rocket 4.4 04:05:40 10° SE 04:10:41 50° ENE 04:15:39 10° N
Nadezhda 2 Rocket 4.3 04:05:53 10° NNW 04:12:00 74° W 04:18:07 10° S
Cosmos 1943 Rocket 2.3 04:15:06 53° NW 04:15:06 53° NW 04:20:09 10° NNE
IRS-P2 Rocket 4.5 04:09:32 10° NNE 04:14:57 79° WNW 04:15:36 68° SW
MOS 1 Rocket 4.4 04:13:36 10° N 04:17:26 37° NW 04:17:26 37° NW
Cosmos 1782 Rocket 3.5 04:19:41 10° N 04:24:11 86° E 04:28:37 10° S
Cosmos 676 Rocket 4.4 04:27:55 44° SSW 04:27:55 44° SSW 04:31:52 10° S
ADEOS II 2.1 04:23:00 10° N 04:28:10 57° WNW 04:28:38 55° W
CZ-4B R/B 3.3 04:25:39 10° N 04:31:06 54° WNW 04:32:07 47° WSW
Cosmos 1140 Rocket 3.3 04:26:34 10° NNW 04:31:50 80° WSW 04:37:03 10° SSE
Cosmos 1745 Rocket 4.3 04:25:49 10° N 04:31:57 65° E 04:38:01 10° SSE
Cosmos 1417 Rocket 4.4 04:27:16 10° S 04:33:26 89° W 04:39:36 10° N
Cosmos 614 Rocket 3.9 04:28:48 10° NNW 04:33:55 82° ENE 04:39:04 10° SSE
Meteor 1-20 Rocket 4.3 04:36:33 10° N 04:42:18 78° E 04:47:52 10° SSE
Okean-O 2.5 04:40:05 10° NNE 04:44:32 83° WNW 04:48:07 16° SSW
Lacrosse 5 rocket 2.3 04:44:18 23° NNW 04:45:58 36° NE 04:49:18 10° ESE
Tiangong 1 1.2 04:48:10 61° SE 04:48:10 61° SE 04:50:46 10° E
CZ-4B R/B 3.8 04:46:27 10° N 04:50:29 75° WNW 04:53:53 15° SSW
BREEZE M DEB (TANK) 4.3 04:42:43 25° W 04:51:19 63° NNW 04:56:11 10° ENE
Okean 2 Rocket 3.0 04:51:24 10° NNW 04:55:43 58° W 05:00:03 10° S
Cosmos 1606 3.4 04:52:49 10° S 04:56:36 57° E 05:00:27 10° NNE
Lacrosse 5 2.8 04:55:46 28° WNW 04:57:17 33° NNW 05:01:54 10° NE
Cosmos 1703 Rocket 4.1 04:59:32 34° WNW 04:59:37 34° WNW 05:03:38 10° N
Cosmos 1607 4.3 04:56:10 10° SSW 05:02:12 66° ESE 05:08:20 10° NE
Cosmos 2297 Rocket 3.4 04:59:50 10° NNW 05:05:13 42° ENE 05:10:33 10° SE
Cosmos 1782 2.7 05:01:34 10° S 05:05:31 83° W 05:09:32 10° N
Cosmos 1850 Rocket 4.0 05:04:17 10° NNW 05:09:32 59° WSW 05:14:43 10° S
Cosmos 1656 Rocket 4.2 05:11:37 20° WSW 05:15:04 40° WNW 05:20:25 10° NNE
Cosmos 2151 Rocket 3.5 05:11:06 10° NNW 05:15:37 77° W 05:20:05 10° S
CZ-4C R/B 2.6 05:12:59 22° WSW 05:16:17 46° NW 05:22:11 10° NNE
Meteor 2-6 Rocket 4.1 05:12:16 10° S 05:17:39 89° E 05:23:07 10° N
GEOS 3 Rocket 4.5 05:13:43 10° S 05:18:00 27° WSW 05:20:40 18° WNW
Ariane Rocket 3.9 05:13:06 10° NNE 05:18:05 52° E 05:23:00 10° S
Okean O Rocket 3.7 05:18:57 10° NW 05:19:19 11° NW 05:19:19 11° NW
S3M 4.2 05:16:29 10° SSW 05:22:35 50° WNW 05:28:40 10° N
Meteor 2-11 Rocket 4.4 05:16:37 10° SSW 05:22:42 76° W 05:28:53 10° N
Cosmos 2219 3.7 05:17:50 10° NW 05:22:59 36° WSW 05:28:05 10° S
Meteor 1-31 Rocket 3.7 05:20:05 10° N 05:23:27 28° WNW 05:25:38 17° WSW
Cosmos 1420 Rocket 4.4 05:19:15 12° SW 05:23:38 41° WNW 05:28:33 10° N
Cosmos 2369 Rocket 4.1 05:23:10 10° NW 05:24:30 11° NW 05:26:12 10° NNW
Cosmos 2227 Rocket 2.4 05:20:05 10° NNW 05:25:47 77° ENE 05:31:28 10° SSE
USA 234 3.3 05:19:48 10° NE 05:26:16 67° NNW 05:32:32 11° WSW
COSMO-SKYMED 1 2.6 05:23:01 10° S 05:27:16 54° W 05:31:32 10° NNW
Cosmos 1553 Rocket 4.3 05:22:47 10° SW 05:28:38 43° WNW 05:34:37 10° N
Cosmos 1633 2.5 05:25:24 10° N 05:29:03 87° E 05:32:39 10° S
NOAA 6 4.1 05:25:28 10° N 05:30:29 53° WNW 05:35:28 10° SSW
USA 238 DEB 4.2 05:23:45 10° SSW 05:30:39 65° ESE 05:37:36 10° NE
USA 238 4.2 05:23:50 10° SSW 05:30:45 65° ESE 05:37:42 10° NE
SL-24 R/B - RUBIN 2 4.4 05:30:15 10° NNW 05:36:28 81° NE 05:41:55 10° SE
IDEFIX/ARIANE 42P 3.9 05:33:42 10° NNE 05:38:43 45° E 05:43:40 10° S
ERS-2 4.2 05:37:39 10° NW 05:38:43 11° WNW 05:38:43 11° WNW
Okean 1-7 4.3 05:37:17 12° WSW 05:39:53 19° WNW 05:43:00 10° NNW
Cosmos 1331 Rocket 4.1 05:35:44 10° SSW 05:40:54 80° ESE 05:46:10 10° NNE
ATLAS 3B R/B 2.9 05:43:31 10° SW 05:51:04 68° NW 05:58:19 10° NNE
Meteor 1-11 Rocket 3.8 05:47:15 10° NNW 05:53:11 67° W 05:58:58 10° S
ATLAS 5 CENTAUR R/B 3.9 05:52:24 10° NW 05:54:57 14° NNW 05:57:36 10° N
Cosmos 1110 Rocket 4.0 05:50:47 10° SSW 05:55:55 68° WNW 06:01:06 10° NNE
CZ-4 R/B 2.3 05:52:48 10° NNE 05:56:54 55° E 06:00:55 10° S
YAOGAN 1 4.4 05:52:51 10° NNE 05:56:55 38° E 06:00:56 10° SSE
Cosmos 1697 Rocket 4.0 05:51:59 10° S 05:57:21 47° ESE 06:02:46 10° NE
Cosmos 1709 Rocket 4.0 05:52:35 10° NNW 05:58:34 58° W 06:04:34 10° S
Abrixas 3.2 05:55:52 10° WNW 05:58:40 43° NNE 06:01:26 10° E
Cosmos 1943 Rocket 4.1 05:58:13 10° NW 05:59:45 11° NW 06:01:18 10° NNW
CZ-2C R/B 2.8 05:58:03 10° NNE 06:03:00 73° ESE 06:08:04 10° S
Cosmos 1980 Rocket 4.4 05:58:49 10° SSE 06:03:40 31° ESE 06:08:34 10° NE
Cosmos 2184 Rocket 4.5 05:59:30 10° N 06:05:40 68° E 06:11:47 10° SSE
